YZ-1S DEB (49385 NORAD) Tracking and Keplerian Element Data

This shows tracking and keplerian element data for the satellite.

Feedback or suggestion? Click here.




ElementValue
Catalog49385
NameYZ-1S DEB
Epoch Orbit431
Epoch Day336.90725303
Epoch Year2021
RAAN101.6603
Inclination98.0988
Eccentricity0.0009188
Argument of Perigee164.6985
Mean Anonmoly195.4495
Mean Motion14.59914221
Decay Rate5.41E-06
L11 49385U 21099C 21336.90725303 .00000541 00000+0 12253-3 0 9999
L22 49385 98.0988 101.6603 0009188 164.6985 195.4495 14.59914221 4318

Live tracking and technical data element details for YZ-1S DEB (NORAD 49385). YZ-1S DEB can be tracked NOW for your location showing map with azimuth and elevation plus other details from your city location.

Track the satellite on the map from your city or location and see movement details for azimuth, elevation, latitude, longitude, range, height, and movement on the map or in text.







IsCatalogInMostPopularTable: catalog: 49385, numindb: 9
Update: records affected: 1



GetName: 49385 YZ-1S DEB

Hit Count: updated at: Thu, 20 Jan 2022 17:16:01 GMT